4XPDC LLIB-LGIR

Flight info

Callsign 4XPDC
Flight time N/A
Altitude 25000
Route BARZI Y85 GALIM P68 APLON N159 KAVOS A14 XAVIS
Aircraft B350/L-SBGRW/S

Departure

Time 2026-05-01 13:31
Airport Rosh Pina Airport (LLIB)

Arrival

Time N/A
Airport Heraklion International Nikos Kazantzakis Airport (LGIR)
Time Latitude Longitude Altitude Speed Heading
2026-05-01 13:18 32.97782 35.57341 892 ft 0 kts
2026-05-01 13:21 32.97781 35.57341 892 ft 0 kts
2026-05-01 13:29 32.97809 35.57326 894 ft 2 kts 84°
2026-05-01 13:30 32.99296 35.56441 1324 ft 129 kts 332°
2026-05-01 13:31 33.01036 35.56084 2409 ft 149 kts 29°
2026-05-01 13:31 32.99482 35.57912 3284 ft 194 kts 200°
2026-05-01 13:32 32.96820 35.56831 3894 ft 204 kts 202°
2026-05-01 13:33 32.92405 35.55983 4550 ft 219 kts 194°
2026-05-01 13:33 32.89429 35.55422 5336 ft 204 kts 194°
2026-05-01 13:34 32.86803 35.54930 6486 ft 189 kts 198°
2026-05-01 13:34 32.84656 35.53397 7262 ft 180 kts 234°
2026-05-01 13:35 32.83708 35.50714 8036 ft 178 kts 267°
2026-05-01 13:35 32.83712 35.49240 8440 ft 178 kts 271°
2026-05-01 13:35 32.83728 35.46273 9248 ft 182 kts 271°
2026-05-01 13:36 32.83748 35.44767 9667 ft 182 kts 271°
2026-05-01 13:36 32.83765 35.43252 10025 ft 184 kts 271°
2026-05-01 13:36 32.83783 35.40215 10756 ft 185 kts 271°
2026-05-01 13:37 32.83810 35.38678 11076 ft 187 kts 271°
2026-05-01 13:37 32.83824 35.37135 11455 ft 187 kts 271°
2026-05-01 13:37 32.83836 35.35600 11761 ft 189 kts 271°
2026-05-01 13:37 32.83855 35.34040 12125 ft 189 kts 271°
2026-05-01 13:38 32.83874 35.30890 12817 ft 192 kts 271°
2026-05-01 13:38 32.83891 35.29304 13176 ft 192 kts 271°
2026-05-01 13:38 32.83907 35.27709 13536 ft 194 kts 271°
2026-05-01 13:39 32.83920 35.26098 13870 ft 196 kts 271°
2026-05-01 13:39 32.83932 35.24474 14184 ft 196 kts 271°
2026-05-01 13:39 32.83946 35.22850 14506 ft 197 kts 271°
2026-05-01 13:39 32.83960 35.21220 14828 ft 197 kts 271°
2026-05-01 13:40 32.83973 35.19587 15137 ft 198 kts 271°
2026-05-01 13:40 32.83985 35.17946 15445 ft 198 kts 271°
2026-05-01 13:40 32.83998 35.16305 15763 ft 199 kts 271°
2026-05-01 13:40 32.84011 35.14658 16073 ft 199 kts 271°
2026-05-01 13:41 32.84023 35.13006 16380 ft 200 kts 271°
2026-05-01 13:41 32.84037 35.11352 16697 ft 200 kts 271°
2026-05-01 13:41 32.84048 35.09698 17008 ft 200 kts 271°
2026-05-01 13:41 32.84058 35.08060 17308 ft 201 kts 271°
2026-05-01 13:42 32.84070 35.06391 17615 ft 202 kts 271°
2026-05-01 13:42 32.84082 35.04720 17920 ft 202 kts 271°
2026-05-01 13:42 32.84093 35.03043 18216 ft 203 kts 272°
2026-05-01 13:42 32.84104 35.01362 18476 ft 204 kts 272°
2026-05-01 13:43 32.84115 34.99677 18734 ft 204 kts 272°
2026-05-01 13:43 32.84213 34.98002 18999 ft 203 kts 282°
2026-05-01 13:43 32.84611 34.96384 19249 ft 205 kts 288°
2026-05-01 13:43 32.85062 34.94777 19500 ft 205 kts 287°
2026-05-01 13:44 32.85506 34.93165 19759 ft 205 kts 288°
2026-05-01 13:44 32.85955 34.91551 20009 ft 206 kts 288°
2026-05-01 13:44 32.86405 34.89935 20262 ft 206 kts 288°
2026-05-01 13:44 32.86857 34.88313 20514 ft 206 kts 288°
2026-05-01 13:45 32.87308 34.86694 20768 ft 207 kts 288°
2026-05-01 13:45 32.87759 34.85071 21021 ft 207 kts 288°
2026-05-01 13:45 32.88211 34.83444 21269 ft 207 kts 288°
2026-05-01 13:45 32.88664 34.81812 21512 ft 208 kts 288°
2026-05-01 13:46 32.89112 34.80198 21758 ft 208 kts 288°
2026-05-01 13:46 32.89566 34.78560 22004 ft 208 kts 288°
2026-05-01 13:46 32.90021 34.76922 22244 ft 209 kts 288°
2026-05-01 13:46 32.90474 34.75282 22494 ft 209 kts 288°
2026-05-01 13:47 32.90930 34.73636 22738 ft 209 kts 288°
2026-05-01 13:47 32.91386 34.71988 22978 ft 210 kts 288°
2026-05-01 13:47 32.91843 34.70338 23218 ft 210 kts 288°
2026-05-01 13:47 32.92300 34.68684 23457 ft 211 kts 288°
2026-05-01 13:48 32.92759 34.67026 23662 ft 211 kts 288°
2026-05-01 13:48 32.93217 34.65364 23847 ft 211 kts 288°
2026-05-01 13:48 32.93521 34.64263 23972 ft 212 kts 288°
2026-05-01 13:48 32.93989 34.62572 24008 ft 219 kts 288°
2026-05-01 13:49 32.94474 34.60823 24011 ft 226 kts 288°
2026-05-01 13:49 32.95132 34.58436 24017 ft 232 kts 288°
2026-05-01 13:49 32.95639 34.56594 24018 ft 236 kts 288°
2026-05-01 13:49 32.96155 34.54720 24016 ft 240 kts 288°
2026-05-01 13:50 32.96507 34.53442 24016 ft 242 kts 288°
2026-05-01 13:50 32.97032 34.51531 24022 ft 244 kts 288°
2026-05-01 13:50 32.97562 34.49604 24016 ft 245 kts 288°
2026-05-01 13:50 32.98086 34.47694 24018 ft 247 kts 288°
2026-05-01 13:51 32.98620 34.45746 24019 ft 248 kts 288°
2026-05-01 13:51 32.99157 34.43789 24018 ft 249 kts 288°
2026-05-01 13:51 32.99694 34.41827 24019 ft 250 kts 288°
2026-05-01 13:51 33.00232 34.39860 24018 ft 250 kts 288°
2026-05-01 13:52 33.00771 34.37889 24020 ft 250 kts 288°
2026-05-01 13:52 33.01311 34.35916 24015 ft 251 kts 288°
2026-05-01 13:52 33.01850 34.33939 24017 ft 251 kts 288°
2026-05-01 13:52 33.02391 34.31957 24019 ft 251 kts 288°
2026-05-01 13:53 33.02932 34.29975 24016 ft 251 kts 288°
2026-05-01 13:53 33.04011 34.26013 24014 ft 252 kts 288°
2026-05-01 13:53 33.04551 34.24029 24019 ft 252 kts 288°
2026-05-01 13:54 33.05091 34.22043 24010 ft 252 kts 288°
2026-05-01 13:54 33.05631 34.20056 24015 ft 252 kts 288°
2026-05-01 13:54 33.06171 34.18068 24013 ft 252 kts 288°
2026-05-01 13:54 33.06711 34.16079 24007 ft 252 kts 288°
2026-05-01 13:55 33.07251 34.14087 24010 ft 252 kts 288°
2026-05-01 13:55 33.07783 34.12123 24006 ft 252 kts 288°
2026-05-01 13:55 33.08322 34.10131 23999 ft 252 kts 288°
2026-05-01 13:55 33.08862 34.08137 24000 ft 252 kts 288°
2026-05-01 13:56 33.09402 34.06142 23998 ft 253 kts 288°
2026-05-01 13:56 33.09940 34.04148 24004 ft 253 kts 288°
2026-05-01 13:56 33.10479 34.02153 24002 ft 252 kts 288°
2026-05-01 13:56 33.11016 34.00161 24001 ft 253 kts 288°
2026-05-01 13:57 33.11554 33.98167 24003 ft 253 kts 288°
2026-05-01 13:57 33.12092 33.96172 23997 ft 253 kts 288°
2026-05-01 13:57 33.12629 33.94175 23998 ft 253 kts 288°
2026-05-01 13:57 33.13166 33.92180 24000 ft 253 kts 288°
2026-05-01 13:58 33.13702 33.90185 24001 ft 253 kts 288°
2026-05-01 13:58 33.14239 33.88188 23998 ft 253 kts 288°
2026-05-01 13:58 33.14776 33.86187 23998 ft 253 kts 288°
2026-05-01 13:58 33.15312 33.84190 24002 ft 253 kts 288°
2026-05-01 13:59 33.15848 33.82190 23997 ft 253 kts 288°
2026-05-01 13:59 33.16383 33.80192 23998 ft 253 kts 288°
2026-05-01 13:59 33.16918 33.78193 24001 ft 253 kts 288°
2026-05-01 13:59 33.17446 33.76221 23997 ft 253 kts 288°
2026-05-01 14:00 33.17987 33.74195 24007 ft 253 kts 288°
2026-05-01 14:00 33.18521 33.72199 24002 ft 253 kts 288°
2026-05-01 14:00 33.19054 33.70199 24004 ft 253 kts 288°
2026-05-01 14:00 33.19589 33.68197 24001 ft 253 kts 288°
2026-05-01 14:01 33.20115 33.66221 23997 ft 253 kts 288°
2026-05-01 14:01 33.20647 33.64222 23997 ft 253 kts 288°
2026-05-01 14:01 33.21181 33.62220 23999 ft 253 kts 288°
2026-05-01 14:01 33.21713 33.60219 23999 ft 253 kts 288°
2026-05-01 14:02 33.22245 33.58217 23998 ft 253 kts 288°
2026-05-01 14:02 33.22777 33.56212 23999 ft 253 kts 288°
2026-05-01 14:02 33.23309 33.54209 23998 ft 253 kts 288°
2026-05-01 14:02 33.23839 33.52210 24004 ft 253 kts 288°
2026-05-01 14:03 33.24415 33.50228 24022 ft 253 kts 294°
2026-05-01 14:03 33.25225 33.48363 24016 ft 253 kts 297°
2026-05-01 14:03 33.26048 33.46499 24002 ft 254 kts 296°
2026-05-01 14:03 33.26865 33.44631 24006 ft 254 kts 297°
2026-05-01 14:04 33.27690 33.42766 24004 ft 254 kts 297°
2026-05-01 14:04 33.28516 33.40899 24006 ft 254 kts 297°
2026-05-01 14:04 33.29340 33.39035 24002 ft 254 kts 297°
2026-05-01 14:04 33.30164 33.37167 24003 ft 254 kts 297°
2026-05-01 14:05 33.30987 33.35302 23999 ft 254 kts 297°
2026-05-01 14:05 33.31809 33.33436 24002 ft 254 kts 297°
2026-05-01 14:05 33.32631 33.31572 24000 ft 254 kts 297°
2026-05-01 14:05 33.33453 33.29705 24003 ft 254 kts 297°
2026-05-01 14:06 33.34277 33.27834 24000 ft 254 kts 297°
2026-05-01 14:06 33.35099 33.25966 23997 ft 254 kts 297°
2026-05-01 14:06 33.35921 33.24096 23998 ft 254 kts 297°
2026-05-01 14:06 33.36748 33.22216 23963 ft 255 kts 297°